DW2762 Weather Reports


Display with metric or nautical units.
time (UTC)temp
F
wind
direction
speed
MPH
gust
MPH
rain 1hr
in
rain 24hr
in
rain mn
in
humidity
%
barometer
mb
20260904030113 61 217 0.0 0.0 0.00 0.00 0.00 82 1019.0
20260904024613 61 217 0.0 0.0 0.00 0.00 0.00 82 1019.0
20260904023113 60 217 0.0 0.0 0.00 0.00 0.00 82 1019.0
20260904021613 60 217 0.0 0.0 0.00 0.00 0.00 82 1018.9
20260904020113 61 217 0.0 0.0 0.00 0.00 0.00 82 1018.9
20260904014613 61 217 0.0 0.0 0.00 0.00 0.00 81 1018.9
20260904013113 61 217 0.0 0.0 0.00 0.00 0.00 80 1019.0
20260904011613 61 217 0.0 0.0 0.00 0.00 0.00 80 1019.1
20260904010112 61 217 0.0 0.0 0.00 0.00 0.00 79 1019.3
20260904004612 61 217 0.0 0.0 0.00 0.00 0.00 79 1019.1
20260904001613 61 217 0.0 0.0 0.00 0.00 0.00 80 1019.5
20260903234612 62 217 0.0 0.0 0.00 0.00 0.00 79 1019.5
20260903233112 62 217 0.0 0.0 0.00 0.00 0.00 78 1019.7
20260903231612 62 217 0.0 0.0 0.00 0.00 0.00 77 1019.6
20260903224611 64 217 0.0 0.0 0.00 0.00 0.00 74 1019.5
20260903223111 64 217 0.0 0.0 0.00 0.00 0.00 72 1019.7
20260903221612 65 217 0.0 0.0 0.00 0.00 0.00 70 1019.6
20260903220111 65 217 0.0 4.0 0.00 0.00 0.00 70 1019.8
20260903214611 65 239 1.0 3.0 0.00 0.00 0.00 69 1019.8
20260903213111 66 227 0.0 5.0 0.00 0.00 0.00 68 1019.9
20260903210111 67 250 1.0 6.0 0.00 0.00 0.00 66 1019.9
20260903201610 69 264 4.0 12.0 0.00 0.00 0.00 62 1019.9
20260903200110 69 211 3.0 7.0 0.00 0.00 0.00 61 1019.9
20260903194610 69 269 4.0 9.0 0.00 0.00 0.00 61 1019.7
20260903193110 67 259 5.0 9.0 0.00 0.00 0.00 62 1019.5
20260903191610 66 265 1.0 2.0 0.00 0.00 0.00 65 1019.4
20260903190110 67 313 0.0 0.0 0.00 0.00 0.00 64 1019.3
20260903184609 67 313 0.0 0.0 0.00 0.00 0.00 63 1019.3
20260903180109 70 313 0.0 0.0 0.00 0.00 0.00 56 1019.0
20260903173109 72 317 1.0 2.0 0.00 0.00 0.00 52 1018.7
20260903171609 72 316 2.0 4.0 0.00 0.00 0.00 50 1018.7
20260903170109 73 313 3.0 8.0 0.00 0.00 0.00 49 1018.7
20260903164609 73 309 2.0 5.0 0.00 0.00 0.00 48 1018.7
20260903163108 74 323 3.0 7.0 0.00 0.00 0.00 46 1018.7
20260903161608 74 329 2.0 6.0 0.00 0.00 0.00 45 1018.6
20260903160108 74 309 6.0 10.0 0.00 0.00 0.00 43 1018.8
20260903153108 75 293 4.0 9.0 0.00 0.00 0.00 46 1018.7
20260903150108 75 281 3.0 9.0 0.00 0.00 0.00 45 1018.8
20260903143108 75 302 4.0 8.0 0.00 0.00 0.00 44 1018.8
20260903141608 76 301 4.0 12.0 0.00 0.00 0.00 41 1019.0
20260903140108 76 326 9.0 16.0 0.00 0.00 0.00 41 1018.9
20260903134614 76 253 2.0 11.0 0.00 0.00 0.00 41 1018.9
20260903133112 77 238 3.0 10.0 0.00 0.00 0.00 43 1019.0
20260903131614 78 299 4.0 10.0 0.00 0.00 0.00 45 1019.0
20260903130112 77 290 5.0 10.0 0.00 0.00 0.00 47 1018.9
20260903124612 76 250 3.0 8.0 0.00 0.00 0.00 47 1019.0
20260903123112 77 276 4.0 10.0 0.00 0.00 0.00 46 1019.2
20260903121612 76 301 0.0 7.0 0.00 0.00 0.00 47 1019.3
20260903114612 76 276 4.0 9.0 0.00 0.00 0.00 46 1019.7
20260903113111 75 269 4.0 11.0 0.00 0.00 0.00 46 1019.7
20260903111613 75 317 8.0 14.0 0.00 0.00 0.00 49 1020.0
20260903110111 75 227 3.0 13.0 0.00 0.00 0.00 50 1020.0
20260903104611 76 292 5.0 10.0 0.00 0.00 0.00 48 1020.0
20260903103111 76 246 4.0 10.0 0.00 0.00 0.00 48 1020.5
20260903101611 75 350 4.0 12.0 0.00 0.00 0.00 52 1020.0
20260903100111 76 273 8.0 12.0 0.00 0.00 0.00 51 1020.3
20260903094611 76 247 5.0 12.0 0.00 0.00 0.00 47 1020.2
20260903093110 74 19 3.0 6.0 0.00 0.00 0.00 53 1020.3
20260903091610 74 274 5.0 9.0 0.00 0.00 0.00 54 1020.6
20260903090110 75 259 4.0 11.0 0.00 0.00 0.00 54 1020.7
20260903084610 72 278 4.0 8.0 0.00 0.00 0.00 58 1020.8
20260903074609 66 188 0.0 0.0 0.00 0.00 0.00 73 1020.7
20260903073109 65 188 0.0 0.0 0.00 0.00 0.00 74 1020.8
20260903071609 63 188 0.0 0.0 0.00 0.00 0.00 73 1020.7
20260903070109 63 188 0.0 0.0 0.00 0.00 0.00 75 1020.7
20260903064609 62 188 0.0 0.0 0.00 0.00 0.00 78 1020.6
20260903063109 62 279 0.0 0.0 0.00 0.00 0.00 80 1020.5
20260903061609 61 300 0.0 0.0 0.00 0.00 0.00 81 1020.6
20260903060109 60 313 0.0 0.0 0.00 0.00 0.00 83 1020.7
20260903054609 59 313 0.0 0.0 0.00 0.00 0.00 83 1020.4
20260903051609 58 313 0.0 0.0 0.00 0.00 0.00 85 1020.4
20260903050109 57 313 0.0 0.0 0.00 0.00 0.00 86 1020.4
20260903044608 57 313 0.0 0.0 0.00 0.00 0.00 85 1020.3
20260903043108 56 313 0.0 0.0 0.00 0.00 0.00 86 1020.3
20260903041608 56 313 0.0 0.0 0.00 0.00 0.00 85 1020.5
20260903040108 56 313 0.0 0.0 0.00 0.00 0.00 85 1020.5
20260903034608 56 313 0.0 0.0 0.00 0.00 0.00 85 1020.4
20260903031608 57 313 1.0 3.0 0.00 0.00 0.00 83 1020.1